Vertical_Velocity
9 -0 -5 6 1 -3 1 -0 9 -5 12 7 2 -2 -1 -0 4 -2 -0 -1 3 3 -2 -1 -1 -0 2 2 1 2 0 1 0 -1 -1 -2 1 2 4 2 -0 -1 0 -0
4 -11 -0 4 6 2 8 6 3 -6 -8 2 -1 -13 11 -5 -8 -0 1 5 2 -3 0 -2 2 1 0 0 0 1 1 0 -1 -2 -1 -2 -0 2 1 1 0 2 -0 0
0 -4 1 9 -7 10 10 2 -3 -5 -1 3 3 -5 3 -6 10 10 9 14 0 -1 -3 -4 0 1 1 1 1 1 -0 -0 -1 -2 -2 0 -3 0 3 1 -0 -0 2 0
-2 -2 -8 4 1 3 1 1 1 0 -2 -6 7 -3 5 14 2 3 11 -1 2 -3 -2 -3 -1 2 2 2 1 3 2 0 -1 1 0 0 -0 -1 1 5 3 2 1 -1
-1 -0 0 2 -3 -3 -1 2 4 -1 -1 -2 5 3 8 -13 -1 0 -1 3 -0 -3 -2 -2 -1 1 5 4 2 2 2 1 -0 1 -0 1 0 0 -0 1 4 4 0 0
-0 -1 1 0 -1 -3 3 3 0 1 3 -0 5 3 -1 -10 -2 -7 -0 -0 -5 -2 -2 1 4 2 2 4 3 3 3 3 1 -0 1 -1 -6 -3 -3 0 1 1 2 1
7 -2 1 3 0 -2 1 0 -4 -4 -2 -8 -1 2 4 -4 -3 5 -1 -4 -3 -4 5 6 -2 1 3 4 3 2 1 0 1 1 2 4 3 2 1 3 1 -1 -2 -2
-2 2 -3 -2 -7 3 -1 -1 -6 -4 -2 -4 -1 1 -6 2 -1 0 2 -1 -1 6 0 1 -1 -3 2 3 4 5 1 -0 -0 3 -0 -1 -0 2 -1 -3 -2 -1 -3 -4
-3 -4 -1 -3 3 6 -1 -3 3 2 -1 0 1 1 9 4 5 4 4 6 3 -0 1 -1 -4 -1 -0 3 7 4 2 0 -1 1 -2 2 -1 0 2 2 2 1 -1 -2
-1 2 -3 3 4 3 2 6 1 -1 -4 -0 -2 3 -8 -14 -3 4 5 1 -1 -1 -3 -3 -4 -2 -0 4 4 3 1 2 0 -2 -2 0 2 4 4 3 2 -1 -6 0
5 10 -4 6 -5 -7 -1 -2 -2 2 -0 -6 -2 -3 1 -12 -6 -1 4 1 4 0 -2 -2 -8 -8 -0 2 3 3 2 0 0 0 0 1 0 1 -0 3 2 1 12 2
-8 6 2 -7 -1 -1 1 6 4 2 -3 -1 4 -11 -2 -4 2 0 1 3 -2 -3 3 3 4 6 2 -1 -0 3 1 0 -0 2 1 2 2 -0 1 -1 6 8 -1 -0
-10 8 1 8 4 1 -1 -3 1 2 4 -5 2 -7 1 0 2 4 -0 1 1 -2 -1 -2 -1 2 2 1 -1 1 2 2 2 1 2 -1 1 -2 6 7 -1 1 1 1
8 -2 -5 -22 -16 -3 -4 -4 3 3 3 -2 -16 3 -3 -2 1 1 -1 -3 3 1 -1 -2 -4 -3 -1 1 1 1 2 2 3 3 1 3 4 4 2 2 1 -0 0 -1
5 -2 -0 -1 -0 -2 4 1 1 -2 -1 0 -3 2 0 2 3 3 5 2 3 -2 -2 -4 -0 -1 -2 -2 0 1 2 4 4 3 2 2 3 1 0 0 1 -1 -1 -1
0 -4 0 -1 2 -2 -2 3 0 3 2 -0 1 -8 6 8 3 -3 -1 1 2 -0 -1 0 2 2 1 1 0 -0 0 1 1 2 2 2 2 2 1 1 1 1 1 1
2 4 -0 -9 5 7 -0 -10 -4 2 2 4 -2 -3 1 -1 -1 -5 -3 3 2 -2 -1 -2 0 1 1 0 1 2 2 3 2 1 1 0 0 1 1 -0 -1 -1 -1 -2
-0 -1 6 -4 4 -1 -20 -6 1 -3 9 5 3 -1 -5 -2 7 0 1 2 1 1 -1 -2 -0 -1 -1 -0 -1 -0 -1 -1 -1 1 3 1 1 0 -3 -2 -1 -1 -0 -3
-0 2 -2 -2 -0 -3 1 -6 -8 -4 -14 -1 3 -5 -2 -0 2 -1 1 2 1 -0 1 -1 -1 0 1 -0 -1 -1 0 -1 1 1 1 -1 -0 -0 -1 -0 1 -2 -2 -4
4 7 5 2 1 -4 -16 -6 -0 8 -18 -3 -1 -3 -1 -0 -6 -3 1 1 0 -1 -1 -0 -0 -1 1 -1 -1 0 0 -1 -0 0 0 -1 -1 -0 -1 -2 -1 -3 -4 -2
5 5 -2 -4 -2 -2 -5 -7 9 11 -33 -6 6 -6 -1 -5 8 9 2 -0 -1 -0 -1 0 -1 -1 0 -1 -1 0 -1 -1 -0 -0 -0 -3 -2 -2 -0 -2 -3 -3 -2 -2
-4 -0 -1 8 8 -8 -2 4 -10 1 -2 -1 1 0 -2 3 0 3 1 -2 -0 1 -1 -0 -1 0 2 -0 -2 -1 -2 -1 -1 -2 -2 -3 -1 -2 -2 -1 -1 -2 -2 -1
-0 -7 -10 -10 -17 -6 7 -6 6 -1 -3 1 -0 -0 2 3 3 3 2 0 0 -1 1 1 1 1 2 -1 -2 -1 -1 -0 -0 -1 -2 -0 -1 -1 -2 -3 -2 -2 -1 -1
-5 -9 -8 11 -3 -9 6 -6 3 -1 2 -1 -2 1 3 2 -0 0 -1 0 1 0 1 0 -1 0 1 1 0 0 -2 -2 -2 -2 -1 -1 0 -2 -2 -1 -2 -2 -1 -2
14 17 4 0 -6 -5 6 5 2 -3 -0 1 -3 1 2 1 -0 -1 -2 -3 0 2 1 1 -1 0 0 -0 -1 -0 -2 -0 -2 -2 -1 -1 1 -1 -2 -2 -2 -3 -1 -2
7 3 6 6 2 -18 1 15 -1 -6 4 0 -0 -1 0 0 1 -0 -2 -0 0 0 2 1 -0 0 1 -1 -2 2 -1 0 0 -2 -1 -2 -1 -1 -2 -1 -1 -1 -1 -3
Height
3175 3176 3175 3176 3177 3175 3176 3176 3175 3173 3172 3173 3173 3174 3174 3176 3177 3177 3178 3180 3181 3181 3182 3183 3184 3185 3186 3187 3187 3186 3186 3186 3185 3186 3186 3185 3186 3185 3184 3183 3182 3182 3181 3179
3172 3171 3173 3174 3174 3171 3171 3172 3174 3172 3171 3171 3172 3171 3172 3172 3172 3173 3174 3177 3180 3179 3180 3181 3181 3183 3184 3184 3185 3185 3184 3184 3183 3183 3183 3182 3183 3182 3182 3181 3181 3179 3178 3176
3167 3168 3169 3171 3172 3172 3170 3170 3170 3170 3170 3170 3169 3168 3170 3171 3167 3168 3170 3176 3177 3176 3177 3177 3178 3180 3182 3183 3183 3183 3183 3181 3180 3180 3179 3178 3179 3180 3180 3178 3177 3177 3175 3173
3165 3165 3166 3168 3168 3170 3169 3169 3168 3169 3169 3169 3168 3167 3168 3165 3161 3161 3165 3173 3174 3173 3174 3174 3176 3177 3179 3180 3181 3181 3181 3179 3178 3177 3176 3175 3176 3176 3176 3176 3175 3173 3171 3170
3163 3162 3163 3164 3165 3167 3167 3167 3167 3167 3167 3167 3166 3165 3162 3161 3158 3158 3163 3169 3170 3170 3171 3172 3174 3176 3176 3178 3179 3179 3178 3177 3175 3174 3172 3171 3172 3172 3172 3172 3170 3169 3168 3166
3158 3159 3161 3162 3162 3164 3164 3165 3165 3164 3164 3163 3162 3162 3159 3160 3159 3159 3163 3165 3166 3167 3168 3170 3173 3174 3175 3176 3176 3177 3176 3174 3172 3171 3169 3166 3166 3167 3167 3167 3166 3164 3162 3160
3155 3156 3158 3159 3160 3160 3161 3163 3164 3165 3164 3161 3159 3158 3158 3159 3159 3161 3162 3162 3163 3165 3167 3168 3170 3172 3173 3173 3173 3173 3174 3172 3169 3167 3167 3165 3162 3162 3163 3162 3160 3159 3157 3154
3151 3153 3154 3155 3156 3157 3158 3161 3161 3163 3163 3159 3157 3156 3158 3160 3161 3162 3161 3161 3162 3164 3165 3166 3167 3169 3169 3170 3170 3169 3170 3169 3167 3165 3162 3161 3159 3157 3156 3156 3156 3154 3151 3148
3147 3149 3150 3150 3153 3155 3155 3156 3159 3159 3159 3158 3156 3156 3158 3159 3161 3161 3161 3160 3160 3162 3161 3163 3165 3166 3166 3166 3166 3165 3165 3165 3164 3162 3159 3157 3156 3156 3154 3153 3151 3149 3145 3142
3144 3146 3146 3147 3149 3151 3152 3154 3156 3156 3159 3159 3151 3152 3151 3156 3157 3158 3158 3158 3158 3158 3159 3160 3162 3162 3162 3162 3163 3161 3160 3159 3158 3157 3157 3156 3154 3153 3152 3150 3148 3145 3141 3138
3140 3143 3145 3145 3146 3147 3150 3150 3151 3152 3152 3151 3154 3148 3148 3151 3155 3156 3156 3158 3158 3157 3156 3157 3156 3157 3157 3156 3157 3156 3155 3154 3153 3153 3153 3153 3152 3150 3149 3147 3144 3140 3137 3133
3135 3137 3139 3141 3143 3144 3146 3147 3148 3148 3148 3148 3147 3148 3146 3149 3150 3153 3154 3155 3156 3155 3155 3155 3153 3151 3150 3150 3150 3151 3151 3150 3149 3150 3150 3150 3149 3148 3146 3143 3140 3137 3132 3127
3128 3130 3134 3138 3140 3140 3140 3142 3143 3144 3144 3143 3145 3146 3145 3146 3149 3151 3153 3153 3152 3152 3153 3151 3149 3147 3145 3144 3144 3145 3146 3147 3147 3147 3147 3146 3145 3144 3142 3139 3135 3130 3125 3120
3123 3124 3127 3129 3132 3135 3137 3137 3138 3140 3139 3138 3139 3141 3142 3144 3146 3147 3149 3150 3150 3148 3149 3146 3143 3142 3141 3140 3140 3141 3143 3144 3144 3144 3144 3143 3142 3139 3136 3133 3129 3124 3118 3112
3119 3120 3123 3126 3129 3131 3132 3133 3134 3133 3135 3135 3136 3138 3139 3141 3142 3143 3144 3144 3145 3145 3144 3143 3140 3138 3138 3138 3138 3139 3140 3141 3141 3141 3141 3139 3137 3134 3131 3127 3122 3117 3110 3103
3114 3116 3118 3121 3125 3127 3127 3129 3130 3130 3131 3131 3132 3132 3135 3137 3137 3137 3138 3140 3140 3140 3140 3139 3138 3136 3136 3136 3136 3137 3137 3137 3137 3137 3136 3135 3132 3129 3124 3120 3114 3109 3102 3094
3110 3112 3114 3116 3121 3122 3123 3122 3125 3126 3126 3127 3127 3129 3130 3131 3132 3132 3134 3135 3137 3137 3136 3135 3134 3134 3134 3135 3135 3135 3135 3135 3134 3133 3132 3129 3126 3122 3118 3112 3107 3100 3093 3085
3105 3108 3112 3114 3116 3117 3115 3119 3120 3121 3121 3122 3122 3123 3124 3126 3127 3128 3130 3132 3133 3132 3132 3132 3132 3132 3131 3131 3131 3132 3132 3131 3130 3129 3126 3124 3120 3116 3111 3106 3099 3093 3086 3077
3101 3105 3107 3109 3108 3109 3108 3113 3115 3115 3116 3117 3117 3118 3118 3120 3123 3124 3125 3127 3127 3127 3128 3129 3129 3129 3128 3128 3128 3128 3128 3127 3126 3124 3121 3118 3114 3110 3105 3099 3093 3086 3078 3071
3096 3100 3103 3104 3104 3103 3104 3109 3111 3112 3109 3113 3112 3112 3112 3114 3116 3120 3122 3122 3123 3123 3124 3125 3126 3126 3126 3126 3125 3124 3124 3122 3121 3119 3116 3113 3109 3104 3098 3093 3085 3079 3072 3066
3089 3092 3094 3097 3099 3097 3101 3103 3106 3109 3107 3106 3107 3109 3109 3111 3114 3116 3117 3118 3119 3119 3120 3121 3121 3122 3122 3122 3121 3120 3119 3117 3116 3114 3110 3106 3102 3097 3091 3086 3080 3073 3067 3060
3084 3087 3089 3093 3093 3095 3097 3100 3101 3103 3104 3104 3104 3105 3106 3109 3110 3111 3113 3114 3115 3115 3116 3117 3118 3118 3118 3117 3116 3115 3114 3112 3110 3108 3104 3100 3095 3090 3085 3080 3075 3068 3062 3056
3079 3079 3084 3088 3086 3090 3092 3095 3097 3098 3100 3102 3101 3102 3104 3106 3107 3108 3109 3110 3111 3112 3112 3113 3114 3114 3114 3112 3112 3111 3110 3108 3105 3102 3099 3095 3090 3085 3080 3075 3070 3064 3058 3052
3073 3076 3080 3083 3083 3085 3089 3091 3092 3094 3096 3098 3099 3100 3101 3102 3104 3105 3106 3107 3108 3108 3109 3110 3110 3110 3110 3109 3108 3107 3105 3103 3101 3098 3094 3090 3085 3080 3075 3069 3064 3058 3053 3048
3067 3071 3073 3075 3079 3082 3083 3084 3087 3090 3092 3093 3095 3096 3098 3099 3101 3102 3102 3103 3105 3105 3106 3106 3107 3107 3106 3105 3104 3102 3100 3099 3096 3093 3089 3085 3081 3076 3070 3065 3059 3053 3047 3042
3060 3063 3067 3070 3074 3074 3075 3079 3081 3084 3086 3089 3091 3092 3093 3095 3096 3097 3098 3100 3101 3102 3103 3103 3104 3103 3103 3101 3100 3098 3096 3095 3092 3088 3085 3080 3076 3071 3066 3060 3054 3048 3043 3038